This demonstration page uses our WeatherBlox Daily Observations layout. Learn more.

Left ArrowRight Arrow

Hourly Observations for March 16, 2020

Temp ( °F °C ) Dew Point ( °F °C ) Humidity (%) Winds ( mph kmh ) Pressure ( in mb ) Visibility ( mi km ) Precip ( " mm )
12:53 am 00:53 Mostly Cloudy 39 3.9 35 1.7 86 86 NE 5 7 29.98 1015 10 16 0.00 0.00
1:53 am 01:53 Cloudy 40 4.4 35 1.7 83 83 Calm 29.97 1015 10 16 0.00 0.00
2:53 am 02:53 Cloudy 41 5 36 2.2 82 82 W 6 9 29.98 1015 10 16 0.00 0.00
3:53 am 03:53 Mostly Cloudy 40 4.4 36 2.2 86 86 Calm 29.95 1014 10 16 0.00 0.00
4:53 am 04:53 Cloudy 40 4.4 36 2.2 86 86 Calm 29.95 1014 10 16 0.00 0.00
5:53 am 05:53 Mostly Clear 40 4.4 35 1.7 83 83 Calm 29.94 1014 10 16 0.00 0.00
6:53 am 06:53 Cloudy 40 4.4 35 1.7 83 83 N 3 6 29.95 1014 10 16 0.00 0.00
7:53 am 07:53 Cloudy 40 4.4 35 1.7 83 83 Calm 29.93 1014 10 16 0.00 0.00
8:53 am 08:53 Cloudy 42 5.6 36 2.2 79 79 W 5 7 29.92 1013 10 16 0.00 0.00
9:53 am 09:53 Cloudy 45 7.2 34 1.1 66 66 WNW 3 6 29.93 1014 10 16 0.00 0.00
10:53 am 10:53 Mostly Cloudy 47 8.3 33 0.6 59 59 Calm 29.93 1014 10 16 0.00 0.00
11:53 am 11:53 Partly Cloudy 49 9.4 37 2.8 64 64 Calm 29.91 1013 10 16 0.00 0.00
12:53 pm 12:53 Sunny 51 10.6 37 2.8 59 59 NE 5 7 29.90 1012 10 16 0.00 0.00
1:53 pm 13:53 Partly Cloudy 51 10.6 37 2.8 59 59 E 5 7 29.90 1013 10 16 0.00 0.00
2:53 pm 14:53 Mostly Sunny 53 11.7 38 3.3 57 57 E 6 9 29.89 1012 10 16 0.00 0.00
3:53 pm 15:53 Mostly Sunny 55 12.8 37 2.8 51 51 N 5 7 29.85 1011 10 16 0.00 0.00
4:53 pm 16:53 Cloudy 53 11.7 37 2.8 55 55 Calm 29.86 1011 10 16 0.00 0.00
5:53 pm 17:53 Cloudy 53 11.7 37 2.8 55 55 SSE 3 6 29.83 1010 10 16 0.00 0.00
6:53 pm 18:53 Cloudy 52 11.1 39 3.9 61 61 SSE 3 6 29.84 1011 10 16 0.00 0.00
7:53 pm 19:53 Cloudy with Light Rain 50 10 41 5 71 71 SSW 7 11 29.84 1010 10 16 0.00 0.00
8:53 pm 20:53 Cloudy with Light Rain 47 8.3 41 5 80 80 S 6 9 29.85 1011 10 16 0.03 0.76
9:43 pm 21:43 Cloudy with Rain 46 7.8 43 6.1 89 89 ESE 7 11 29.88 1012 4 6 0.11 2.79
9:53 pm 21:53 Cloudy with Rain 45 7.2 43 6.1 93 93 SSE 5 7 29.87 1011 5 8 0.14 3.56
10:53 pm 22:53 Cloudy with Light Rain 45 7.2 43 6.1 93 93 SSE 6 9 29.89 1012 7 11 0.24 6.10
11:40 pm 23:40 Cloudy with Light Rain 44 6.7 42 5.6 93 93 SE 7 11 29.91 1013 8 13 0.10 2.54
11:53 pm 23:53 Cloudy with Light Rain 44 6.7 41 5 89 89 SE 8 13 29.90 1013 10 16 0.11 2.79

Powered by AerisWeather